Location: *
(12.5665°N, 8.3471°E)
Time: 08:42:18
(UTC+00:00)

Stardust Del rocket - Pass Details

Date: 23 September 2019
Orbit: 286 x 4246 km, 22.5° (Epoch: 13 October)

Event Time Altitude Azimuth Distance (km) Brightness Sun altitude
Exits shadow 03:55:42 26° 126° (SE) 603 4.0 -20.3°
Drops below altitude 10° 03:57:11 10° 92° (E) 1,130 6.1 -20.0°
Sets 03:59:19 0° 80° (E) 2,076 7.9 -19.5°
